When you browse on this site, cookies collect data to enhance your experience and personalize the content and advertising you see.
Visit our Privacy Policy to learn more. By continuing to use the site, you agree to this use of cookies and data.
  • In Hungary
  • List of Countries
  • For 7 days
  • Water Temperature
  • Weather Map
  • News
  • Weather Widgets
  • user-avatar
    Login

    Hourly Weather Dybalovo

    Today, 20 January, Monday

    Time Temperature Precipitation Wind Pressure Humidity
    00:00 -1°C° 0 mm 4 mps 753 mmHg 90%
    01:00 -1°C° 0 mm 4 mps 753 mmHg 90%
    02:00 -1°C° 0 mm 4 mps 753 mmHg 91%
    03:00 -1°C° 0 mm 5 mps 753 mmHg 91%
    04:00 -1°C° 0 mm 5 mps 753 mmHg 90%
    05:00 -1°C° 0 mm 5 mps 752 mmHg 90%
    06:00 -1°C° 0 mm 5 mps 752 mmHg 90%
    07:00 -1°C° 0 mm 5 mps 752 mmHg 89%
    08:00 -1°C° 0 mm 4 mps 753 mmHg 88%
    09:00 -1°C° 0 mm 5 mps 752 mmHg 87%
    10:00 -1°C° 0 mm 5 mps 752 mmHg 86%
    11:00 0°C° 0 mm 5 mps 752 mmHg 85%
    12:00 0°C° 0 mm 5 mps 752 mmHg 86%
    13:00 0°C° 0 mm 5 mps 752 mmHg 86%
    14:00 0°C° 0 mm 5 mps 752 mmHg 86%
    15:00 0°C° 0 mm 5 mps 752 mmHg 86%
    16:00 -1°C° 0 mm 5 mps 751 mmHg 86%
    17:00 -1°C° 0 mm 5 mps 751 mmHg 86%
    18:00 -1°C° 0 mm 5 mps 751 mmHg 85%
    19:00 -1°C° 0 mm 5 mps 750 mmHg 85%
    20:00 -2°C° 0 mm 5 mps 750 mmHg 85%
    21:00 -2°C° 0 mm 5 mps 750 mmHg 85%
    22:00 -2°C° 0 mm 5 mps 749 mmHg 85%
    23:00 -2°C° 0 mm 5 mps 748 mmHg 86%

    Tomorrow, 21 January, Tuesday

    Time Temperature Precipitation Wind Pressure Humidity
    00:00 -2°C° 0.1 mm 5 mps 748 mmHg 86%
    01:00 -2°C° 0.1 mm 6 mps 747 mmHg 86%
    02:00 -2°C° 0.1 mm 6 mps 746 mmHg 86%
    03:00 -2°C° 0.1 mm 6 mps 745 mmHg 89%
    04:00 -2°C° 0.1 mm 6 mps 744 mmHg 92%
    05:00 -2°C° 0.1 mm 6 mps 743 mmHg 95%
    06:00 -2°C° 0.1 mm 6 mps 743 mmHg 93%
    07:00 -1°C° 0.1 mm 6 mps 742 mmHg 92%
    08:00 -1°C° 0.1 mm 6 mps 741 mmHg 90%
    09:00 +1°C° 0.1 mm 6 mps 741 mmHg 91%
    10:00 +1°C° 0.1 mm 6 mps 740 mmHg 91%
    11:00 +1°C° 0.1 mm 6 mps 740 mmHg 92%
    12:00 +2°C° 0 mm 6 mps 739 mmHg 92%
    13:00 +2°C° 0 mm 6 mps 738 mmHg 91%
    14:00 +2°C° 0 mm 6 mps 738 mmHg 91%
    15:00 +2°C° 0.6 mm 6 mps 737 mmHg 92%
    16:00 +3°C° 0.6 mm 6 mps 735 mmHg 92%
    17:00 +3°C° 0.6 mm 6 mps 734 mmHg 93%
    18:00 +2°C° 0.5 mm 6 mps 734 mmHg 92%
    19:00 +2°C° 0.5 mm 6 mps 734 mmHg 91%
    20:00 +2°C° 0.5 mm 6 mps 734 mmHg 90%
    21:00 +1°C° 0 mm 6 mps 734 mmHg 86%
    22:00 -2°C° 0 mm 6 mps 735 mmHg 82%
    23:00 -3°C° 0 mm 6 mps 735 mmHg 78%

    Day after tomorrow, 22 January, Wednesday

    Time Temperature Precipitation Wind Pressure Humidity
    00:00 -3°C° 0 mm 6 mps 735 mmHg 78%
    01:00 -3°C° 0 mm 6 mps 736 mmHg 78%
    02:00 -2°C° 0 mm 5 mps 736 mmHg 77%
    03:00 -4°C° 0 mm 5 mps 735 mmHg 78%
    04:00 -4°C° 0 mm 5 mps 734 mmHg 79%
    05:00 -4°C° 0 mm 5 mps 734 mmHg 80%
    06:00 -4°C° 0 mm 5 mps 733 mmHg 81%
    07:00 -4°C° 0 mm 5 mps 733 mmHg 82%
    08:00 -4°C° 0 mm 5 mps 732 mmHg 82%
    09:00 -2°C° 0.3 mm 5 mps 732 mmHg 83%
    10:00 -3°C° 0.3 mm 6 mps 731 mmHg 83%
    11:00 -3°C° 0.3 mm 6 mps 731 mmHg 84%
    12:00 -3°C° 0.1 mm 6 mps 731 mmHg 79%
    13:00 -3°C° 0.1 mm 6 mps 730 mmHg 75%
    14:00 -3°C° 0.1 mm 6 mps 730 mmHg 70%
    15:00 -4°C° 0 mm 5 mps 730 mmHg 72%
    16:00 -4°C° 0 mm 5 mps 731 mmHg 74%
    17:00 -4°C° 0 mm 4 mps 731 mmHg 76%
    18:00 -4°C° 0 mm 4 mps 732 mmHg 78%
    19:00 -4°C° 0 mm 4 mps 732 mmHg 79%
    20:00 -5°C° 0 mm 5 mps 733 mmHg 81%
    21:00 -5°C° 0 mm 5 mps 733 mmHg 81%
    22:00 -5°C° 0 mm 5 mps 733 mmHg 81%
    23:00 -5°C° 0 mm 5 mps 734 mmHg 81%

    23 January, Thursday

    Time Temperature Precipitation Wind Pressure Humidity
    00:00 -6°C° 0 mm 6 mps 735 mmHg 78%
    01:00 -6°C° 0 mm 6 mps 735 mmHg 74%
    02:00 -8°C° 0 mm 7 mps 736 mmHg 70%
    03:00 -8°C° 0 mm 7 mps 736 mmHg 71%
    04:00 -9°C° 0 mm 7 mps 737 mmHg 72%
    05:00 -9°C° 0 mm 7 mps 738 mmHg 73%
    06:00 -9°C° 0 mm 7 mps 738 mmHg 69%
    07:00 -9°C° 0 mm 7 mps 739 mmHg 65%
    08:00 -9°C° 0 mm 7 mps 739 mmHg 61%
    09:00 -8°C° 0 mm 7 mps 739 mmHg 60%
    10:00 -8°C° 0 mm 7 mps 740 mmHg 59%
    11:00 -7°C° 0 mm 8 mps 740 mmHg 58%
    12:00 -7°C° 0 mm 7 mps 740 mmHg 58%
    13:00 -7°C° 0 mm 7 mps 741 mmHg 58%
    14:00 -6°C° 0 mm 6 mps 741 mmHg 57%
    15:00 -8°C° 0 mm 6 mps 742 mmHg 58%
    16:00 -7°C° 0 mm 5 mps 742 mmHg 60%
    17:00 -8°C° 0 mm 4 mps 743 mmHg 61%
    18:00 -8°C° 0 mm 4 mps 743 mmHg 62%
    19:00 -8°C° 0 mm 4 mps 744 mmHg 64%
    20:00 -8°C° 0 mm 3 mps 744 mmHg 65%
    21:00 -7°C° 0 mm 3 mps 744 mmHg 66%
    22:00 -7°C° 0 mm 3 mps 744 mmHg 67%
    23:00 -7°C° 0 mm 3 mps 744 mmHg 67%

    24 January, Friday

    Time Temperature Precipitation Wind Pressure Humidity
    00:00 -7°C° 0 mm 3 mps 744 mmHg 70%
    01:00 -7°C° 0 mm 3 mps 744 mmHg 73%
    02:00 -6°C° 0 mm 3 mps 743 mmHg 75%
    03:00 -7°C° 0.1 mm 4 mps 743 mmHg 81%
    04:00 -5°C° 0.1 mm 4 mps 742 mmHg 86%
    05:00 -6°C° 0.1 mm 5 mps 741 mmHg 91%
    06:00 -6°C° 0.3 mm 5 mps 741 mmHg 91%
    07:00 -5°C° 0.3 mm 5 mps 740 mmHg 92%
    08:00 -5°C° 0.3 mm 5 mps 739 mmHg 92%
    09:00 -4°C° 0.1 mm 5 mps 739 mmHg 93%
    10:00 -3°C° 0.1 mm 4 mps 739 mmHg 93%
    11:00 -2°C° 0.1 mm 4 mps 739 mmHg 94%
    12:00 -1°C° 0.1 mm 4 mps 738 mmHg 94%
    13:00 0°C° 0.1 mm 4 mps 738 mmHg 94%
    14:00 +1°C° 0.1 mm 5 mps 738 mmHg 93%
    15:00 +1°C° 0 mm 5 mps 738 mmHg 92%
    16:00 +1°C° 0 mm 5 mps 738 mmHg 92%
    17:00 +1°C° 0 mm 5 mps 738 mmHg 91%
    18:00 +1°C° 0 mm 4 mps 739 mmHg 92%
    19:00 +1°C° 0 mm 4 mps 739 mmHg 93%
    20:00 +1°C° 0 mm 3 mps 739 mmHg 94%
    21:00 0°C° 0.1 mm 4 mps 739 mmHg 94%
    22:00 0°C° 0.1 mm 4 mps 739 mmHg 95%
    23:00 0°C° 0.1 mm 4 mps 739 mmHg 96%

    25 January, Saturday

    Time Temperature Precipitation Wind Pressure Humidity
    00:00 0°C° 0 mm 4 mps 739 mmHg 96%
    01:00 0°C° 0 mm 4 mps 739 mmHg 96%
    02:00 0°C° 0 mm 4 mps 738 mmHg 96%
    03:00 0°C° 0.1 mm 4 mps 738 mmHg 96%
    04:00 0°C° 0.1 mm 4 mps 738 mmHg 96%
    05:00 0°C° 0.1 mm 5 mps 738 mmHg 97%
    06:00 0°C° 0.3 mm 5 mps 738 mmHg 97%
    07:00 0°C° 0.3 mm 5 mps 738 mmHg 97%
    08:00 0°C° 0.3 mm 4 mps 738 mmHg 97%
    09:00 0°C° 0.1 mm 4 mps 738 mmHg 97%
    10:00 0°C° 0.1 mm 4 mps 738 mmHg 97%
    11:00 +1°C° 0.1 mm 4 mps 739 mmHg 97%
    12:00 +1°C° 0.1 mm 4 mps 739 mmHg 96%
    13:00 +1°C° 0.1 mm 4 mps 739 mmHg 96%
    14:00 +1°C° 0.1 mm 4 mps 739 mmHg 96%
    15:00 +1°C° 0.1 mm 4 mps 739 mmHg 95%
    16:00 +1°C° 0.1 mm 4 mps 740 mmHg 95%
    17:00 +1°C° 0.1 mm 3 mps 740 mmHg 95%
    18:00 +1°C° 0 mm 3 mps 740 mmHg 95%
    19:00 +1°C° 0 mm 3 mps 741 mmHg 96%
    20:00 +1°C° 0 mm 3 mps 741 mmHg 96%
    21:00 0°C° 0 mm 3 mps 741 mmHg 96%
    22:00 0°C° 0 mm 3 mps 741 mmHg 96%
    23:00 +1°C° 0 mm 2 mps 742 mmHg 96%
    Show more